| time (UTC) | temp F | wind direction | speed knots | gust knots | rain 1hr in | rain 24hr in | rain mn in | humidity % | barometer mb |
| 20260510180304 | 66 | 293 | 1.7 | 1.7 | 0.00 | 0.00 | 0.00 | 44 | 1017.9 |
| 20260510175804 | 66 | 293 | 3.5 | 3.5 | 0.00 | 0.00 | 0.00 | 46 | 1017.6 |
| 20260510175306 | 65 | 315 | 2.6 | 2.6 | 0.00 | 0.00 | 0.00 | 44 | 1017.6 |
| 20260510174804 | 64 | 293 | 1.7 | 1.7 | 0.00 | 0.00 | 0.00 | 43 | 1017.6 |
| 20260510174304 | 65 | 293 | 1.7 | 3.5 | 0.00 | 0.00 | 0.00 | 45 | 1017.6 |
| 20260510173804 | 66 | 338 | 3.5 | 4.3 | 0.00 | 0.00 | 0.00 | 47 | 1017.6 |
| 20260510173304 | 65 | 45 | 1.7 | 1.7 | 0.00 | 0.00 | 0.00 | 43 | 1017.6 |
| 20260510172805 | 64 | 315 | 3.5 | 3.5 | 0.00 | 0.00 | 0.00 | 48 | 1017.6 |
| 20260510172306 | 64 | 315 | 5.2 | 5.2 | 0.00 | 0.00 | 0.00 | 49 | 1017.6 |
| 20260510171804 | 64 | 270 | 1.7 | 3.5 | 0.00 | 0.00 | 0.00 | 49 | 1017.6 |
| 20260510171304 | 64 | 0 | 1.7 | 1.7 | 0.00 | 0.00 | 0.00 | 46 | 1017.6 |
| 20260510170804 | 65 | 315 | 2.6 | 2.6 | 0.00 | 0.00 | 0.00 | 46 | 1017.6 |
| 20260510170304 | 64 | 270 | 3.5 | 3.5 | 0.00 | 0.00 | 0.00 | 47 | 1017.6 |
| 20260510165804 | 64 | 338 | 2.6 | 3.5 | 0.00 | 0.00 | 0.00 | 48 | 1017.9 |
| 20260510165306 | 63 | 293 | 2.6 | 2.6 | 0.00 | 0.00 | 0.00 | 45 | 1017.9 |
| 20260510164804 | 64 | 315 | 2.6 | 2.6 | 0.00 | 0.00 | 0.00 | 47 | 1017.9 |
| 20260510164304 | 64 | 23 | 1.7 | 1.7 | 0.00 | 0.00 | 0.00 | 45 | 1017.9 |
| 20260510163804 | 64 | 90 | 2.6 | 2.6 | 0.00 | 0.00 | 0.00 | 48 | 1017.9 |
| 20260510163304 | 64 | 293 | 3.5 | 3.5 | 0.00 | 0.00 | 0.00 | 42 | 1017.9 |
| 20260510162804 | 63 | 338 | 1.7 | 1.7 | 0.00 | 0.00 | 0.00 | 42 | 1017.9 |
| 20260510162306 | 63 | 270 | 2.6 | 2.6 | 0.00 | 0.00 | 0.00 | 41 | 1017.6 |
| 20260510161804 | 64 | 338 | 1.7 | 1.7 | 0.00 | 0.00 | 0.00 | 47 | 1017.6 |
| 20260510161304 | 63 | 68 | 1.7 | 3.5 | 0.00 | 0.00 | 0.00 | 43 | 1017.6 |
| 20260510160804 | 63 | 338 | 3.5 | 3.5 | 0.00 | 0.00 | 0.00 | 45 | 1017.6 |
| 20260510160304 | 63 | 0 | 1.7 | 1.7 | 0.00 | 0.00 | 0.00 | 42 | 1017.6 |
| 20260510155804 | 64 | 45 | 1.7 | 1.7 | 0.00 | 0.00 | 0.00 | 42 | 1017.6 |
| 20260510155306 | 63 | 45 | 1.7 | 4.3 | 0.00 | 0.00 | 0.00 | 43 | 1017.6 |
| 20260510154804 | 63 | 315 | 1.7 | 3.5 | 0.00 | 0.00 | 0.00 | 48 | 1017.2 |
| 20260510154304 | 63 | 315 | 3.5 | 3.5 | 0.00 | 0.00 | 0.00 | 51 | 1017.2 |
| 20260510153804 | 63 | 315 | 1.7 | 1.7 | 0.00 | 0.00 | 0.00 | 47 | 1017.2 |
| 20260510153304 | 63 | 293 | 4.3 | 4.3 | 0.00 | 0.00 | 0.00 | 46 | 1017.2 |
| 20260510152804 | 62 | 338 | 1.7 | 1.7 | 0.00 | 0.00 | 0.00 | 52 | 1017.2 |
| 20260510152307 | 61 | 158 | 1.7 | 1.7 | 0.00 | 0.00 | 0.00 | 56 | 1017.2 |
| 20260510151804 | 61 | 248 | 1.7 | 2.6 | 0.00 | 0.00 | 0.00 | 54 | 1017.2 |
| 20260510151304 | 61 | 90 | 0.0 | 1.7 | 0.00 | 0.00 | 0.00 | 55 | 1016.9 |
| 20260510150804 | 60 | 315 | 2.6 | 3.5 | 0.00 | 0.00 | 0.00 | 55 | 1016.9 |
| 20260510150304 | 59 | 0 | 1.7 | 1.7 | 0.00 | 0.00 | 0.00 | 55 | 1016.9 |
| 20260510145803 | 59 | 293 | 3.5 | 3.5 | 0.00 | 0.00 | 0.00 | 57 | 1016.9 |
| 20260510145306 | 59 | 315 | 1.7 | 1.7 | 0.00 | 0.00 | 0.00 | 55 | 1016.9 |
| 20260510144805 | 59 | 113 | 2.6 | 2.6 | 0.00 | 0.00 | 0.00 | 57 | 1016.5 |
| 20260510144304 | 58 | 315 | 1.7 | 1.7 | 0.00 | 0.00 | 0.00 | 56 | 1016.5 |
| 20260510143804 | 58 | 293 | 2.6 | 2.6 | 0.00 | 0.00 | 0.00 | 58 | 1016.5 |
| 20260510143304 | 57 | 338 | 1.7 | 3.5 | 0.00 | 0.00 | 0.00 | 57 | 1016.2 |
| 20260510142804 | 57 | 135 | 1.7 | 1.7 | 0.00 | 0.00 | 0.00 | 57 | 1016.2 |
| 20260510142306 | 57 | 158 | 0.9 | 1.7 | 0.00 | 0.00 | 0.00 | 60 | 1016.2 |
| 20260510141803 | 57 | 315 | 3.5 | 4.3 | 0.00 | 0.00 | 0.00 | 58 | 1016.2 |
| 20260510141304 | 58 | 158 | 1.7 | 1.7 | 0.00 | 0.00 | 0.00 | 60 | 1016.2 |
| 20260510140804 | 57 | 135 | 1.7 | 1.7 | 0.00 | 0.00 | 0.00 | 59 | 1016.2 |
| 20260510140303 | 57 | 338 | 1.7 | 1.7 | 0.00 | 0.00 | 0.00 | 58 | 1016.2 |
| 20260510135804 | 56 | 23 | 1.7 | 2.6 | 0.00 | 0.00 | 0.00 | 59 | 1016.2 |
| 20260510135306 | 56 | 113 | 1.7 | 1.7 | 0.00 | 0.00 | 0.00 | 60 | 1016.2 |
| 20260510134804 | 55 | 203 | 1.7 | 1.7 | 0.00 | 0.00 | 0.00 | 60 | 1015.9 |
| 20260510134304 | 56 | 315 | 1.7 | 1.7 | 0.00 | 0.00 | 0.00 | 57 | 1015.9 |
| 20260510133804 | 56 | 293 | 0.0 | 0.9 | 0.00 | 0.00 | 0.00 | 60 | 1015.9 |
| 20260510133304 | 56 | 338 | 1.7 | 1.7 | 0.00 | 0.00 | 0.00 | 60 | 1015.9 |
| 20260510132804 | 55 | 270 | 1.7 | 1.7 | 0.00 | 0.00 | 0.00 | 63 | 1015.9 |
| 20260510132306 | 55 | 293 | 1.7 | 1.7 | 0.00 | 0.00 | 0.00 | 60 | 1015.9 |
| 20260510131804 | 55 | 315 | 1.7 | 2.6 | 0.00 | 0.00 | 0.00 | 60 | 1015.9 |
| 20260510131304 | 55 | 315 | 1.7 | 1.7 | 0.00 | 0.00 | 0.00 | 63 | 1015.9 |
| 20260510130804 | 55 | 270 | 0.0 | 0.0 | 0.00 | 0.00 | 0.00 | 62 | 1015.9 |
| 20260510130303 | 54 | 315 | 1.7 | 1.7 | 0.00 | 0.00 | 0.00 | 64 | 1015.9 |
| 20260510125804 | 54 | 270 | 1.7 | 1.7 | 0.00 | 0.00 | 0.00 | 64 | 1015.5 |
| 20260510125306 | 54 | 270 | 1.7 | 1.7 | 0.00 | 0.00 | 0.00 | 67 | 1015.5 |
| 20260510124304 | 53 | 180 | 0.0 | 0.0 | 0.00 | 0.00 | 0.00 | 68 | 1015.2 |
| 20260510123804 | 53 | 68 | 0.0 | 0.0 | 0.00 | 0.00 | 0.00 | 67 | 1015.2 |
| 20260510123304 | 53 | 315 | 1.7 | 1.7 | 0.00 | 0.00 | 0.00 | 67 | 1015.2 |
| 20260510122804 | 53 | 248 | 0.0 | 0.0 | 0.00 | 0.00 | 0.00 | 68 | 1015.2 |
| 20260510122314 | 53 | 45 | 0.0 | 0.0 | 0.00 | 0.00 | 0.00 | 67 | 1015.2 |
| 20260510121804 | 53 | 180 | 0.0 | 0.0 | 0.00 | 0.00 | 0.00 | 71 | 1015.2 |
| 20260510121304 | 53 | 270 | 0.0 | 0.0 | 0.00 | 0.00 | 0.00 | 73 | 1015.2 |
| 20260510120804 | 53 | 23 | 0.0 | 0.0 | 0.00 | 0.00 | 0.00 | 70 | 1015.2 |
| 20260510120304 | 53 | 248 | 0.9 | 1.7 | 0.00 | 0.00 | 0.00 | 70 | 1015.2 |
| 20260510115804 | 53 | 270 | 1.7 | 1.7 | 0.00 | 0.00 | 0.00 | 71 | 1014.9 |
| 20260510115306 | 53 | 293 | 0.0 | 0.0 | 0.00 | 0.00 | 0.00 | 71 | 1014.9 |
| 20260510114804 | 53 | 23 | 0.0 | 0.0 | 0.00 | 0.00 | 0.00 | 74 | 1014.5 |
| 20260510114304 | 53 | 113 | 0.0 | 0.0 | 0.00 | 0.00 | 0.00 | 76 | 1014.5 |
| 20260510113804 | 53 | 338 | 0.0 | 0.9 | 0.00 | 0.00 | 0.00 | 74 | 1014.5 |
| 20260510113304 | 53 | 270 | 0.0 | 0.0 | 0.00 | 0.00 | 0.00 | 73 | 1014.2 |
| 20260510112804 | 53 | 270 | 0.0 | 0.0 | 0.00 | 0.00 | 0.00 | 72 | 1014.2 |
| 20260510112306 | 53 | 338 | 1.7 | 1.7 | 0.00 | 0.00 | 0.00 | 71 | 1014.2 |
| 20260510111804 | 53 | 293 | 0.0 | 0.0 | 0.00 | 0.00 | 0.00 | 69 | 1014.2 |
| 20260510111304 | 53 | 225 | 0.0 | 0.0 | 0.00 | 0.00 | 0.00 | 69 | 1014.2 |
| 20260510110804 | 53 | 68 | 0.9 | 0.9 | 0.00 | 0.00 | 0.00 | 70 | 1014.2 |
| 20260510110304 | 53 | 315 | 1.7 | 1.7 | 0.00 | 0.00 | 0.00 | 72 | 1014.2 |
| 20260510105804 | 53 | 293 | 0.0 | 0.0 | 0.00 | 0.00 | 0.00 | 71 | 1013.5 |
| 20260510105306 | 53 | 293 | 0.0 | 1.7 | 0.00 | 0.00 | 0.00 | 70 | 1013.5 |
| 20260510104804 | 54 | 315 | 2.6 | 2.6 | 0.00 | 0.00 | 0.00 | 72 | 1013.5 |
| 20260510104304 | 54 | 113 | 0.0 | 0.0 | 0.00 | 0.00 | 0.00 | 73 | 1013.5 |
| 20260510103804 | 54 | 315 | 0.0 | 0.9 | 0.00 | 0.00 | 0.00 | 75 | 1013.5 |
| 20260510103304 | 54 | 338 | 1.7 | 1.7 | 0.00 | 0.00 | 0.00 | 74 | 1013.2 |
| 20260510102804 | 54 | 158 | 0.0 | 0.0 | 0.00 | 0.00 | 0.00 | 76 | 1013.2 |
| 20260510102306 | 54 | 270 | 1.7 | 1.7 | 0.00 | 0.00 | 0.00 | 78 | 1013.2 |
| 20260510101804 | 54 | 315 | 1.7 | 1.7 | 0.00 | 0.00 | 0.00 | 81 | 1013.2 |
| 20260510101304 | 54 | 68 | 0.0 | 0.0 | 0.00 | 0.00 | 0.00 | 83 | 1013.2 |
| 20260510100804 | 54 | 203 | 0.0 | 0.0 | 0.00 | 0.00 | 0.00 | 80 | 1013.2 |
| 20260510100304 | 55 | 23 | 0.0 | 0.0 | 0.00 | 0.00 | 0.00 | 80 | 1013.2 |
| 20260510095804 | 55 | 315 | 0.0 | 0.0 | 0.00 | 0.00 | 0.00 | 79 | 1013.2 |
| 20260510095306 | 55 | 315 | 1.7 | 1.7 | 0.00 | 0.00 | 0.00 | 79 | 1013.2 |
| 20260510094804 | 55 | 293 | 1.7 | 1.7 | 0.00 | 0.00 | 0.00 | 79 | 1012.5 |
| 20260510094304 | 55 | 315 | 1.7 | 2.6 | 0.00 | 0.00 | 0.00 | 77 | 1012.5 |
| 20260510093804 | 55 | 315 | 1.7 | 1.7 | 0.00 | 0.00 | 0.00 | 77 | 1012.5 |
| 20260510093304 | 55 | 293 | 1.7 | 1.7 | 0.00 | 0.00 | 0.00 | 78 | 1012.1 |
| 20260510092804 | 55 | 293 | 1.7 | 1.7 | 0.00 | 0.00 | 0.00 | 77 | 1012.1 |
| 20260510092306 | 55 | 315 | 2.6 | 2.6 | 0.00 | 0.00 | 0.00 | 78 | 1011.8 |
| 20260510091804 | 56 | 293 | 1.7 | 1.7 | 0.00 | 0.00 | 0.00 | 77 | 1011.8 |
| 20260510091304 | 56 | 293 | 1.7 | 1.7 | 0.00 | 0.00 | 0.00 | 78 | 1011.8 |
| 20260510090803 | 56 | 315 | 1.7 | 3.5 | 0.00 | 0.00 | 0.00 | 78 | 1011.8 |
| 20260510090304 | 56 | 315 | 1.7 | 1.7 | 0.00 | 0.00 | 0.00 | 78 | 1011.8 |
| 20260510085804 | 57 | 315 | 1.7 | 1.7 | 0.00 | 0.00 | 0.00 | 79 | 1011.8 |
| 20260510085306 | 57 | 293 | 1.7 | 3.5 | 0.00 | 0.00 | 0.00 | 79 | 1011.8 |
| 20260510084804 | 57 | 270 | 2.6 | 2.6 | 0.00 | 0.00 | 0.00 | 79 | 1011.1 |
| 20260510084304 | 57 | 293 | 1.7 | 3.5 | 0.00 | 0.00 | 0.00 | 78 | 1011.1 |
| 20260510083804 | 57 | 315 | 1.7 | 1.7 | 0.00 | 0.00 | 0.00 | 78 | 1011.1 |
| 20260510083304 | 57 | 315 | 1.7 | 3.5 | 0.00 | 0.00 | 0.00 | 77 | 1011.1 |
| 20260510082804 | 58 | 293 | 1.7 | 2.6 | 0.00 | 0.00 | 0.00 | 76 | 1011.1 |
| 20260510082306 | 58 | 293 | 1.7 | 1.7 | 0.00 | 0.00 | 0.00 | 76 | 1010.8 |
| 20260510081804 | 58 | 270 | 1.7 | 1.7 | 0.00 | 0.00 | 0.00 | 75 | 1010.8 |
| 20260510081304 | 58 | 270 | 1.7 | 1.7 | 0.00 | 0.00 | 0.00 | 74 | 1011.1 |
| 20260510080804 | 58 | 293 | 1.7 | 1.7 | 0.00 | 0.00 | 0.00 | 74 | 1011.1 |
| 20260510080304 | 58 | 293 | 1.7 | 2.6 | 0.00 | 0.00 | 0.00 | 74 | 1011.1 |
| 20260510075804 | 58 | 315 | 1.7 | 1.7 | 0.00 | 0.00 | 0.00 | 73 | 1011.1 |
| 20260510075306 | 58 | 248 | 0.0 | 0.0 | 0.00 | 0.00 | 0.00 | 73 | 1011.1 |
| 20260510074804 | 58 | 338 | 1.7 | 1.7 | 0.00 | 0.00 | 0.00 | 73 | 1011.1 |
| 20260510074304 | 58 | 248 | 0.0 | 0.0 | 0.00 | 0.00 | 0.00 | 73 | 1011.1 |
| 20260510073804 | 58 | 315 | 0.9 | 1.7 | 0.00 | 0.00 | 0.00 | 73 | 1011.1 |
| 20260510073305 | 58 | 293 | 1.7 | 1.7 | 0.00 | 0.00 | 0.00 | 73 | 1011.1 |
| 20260510072804 | 58 | 270 | 1.7 | 1.7 | 0.00 | 0.00 | 0.00 | 73 | 1011.1 |
| 20260510072306 | 59 | 270 | 1.7 | 1.7 | 0.00 | 0.00 | 0.00 | 73 | 1011.1 |
| 20260510071804 | 59 | 248 | 0.0 | 0.0 | 0.00 | 0.00 | 0.00 | 72 | 1011.1 |
| 20260510071304 | 59 | 270 | 1.7 | 1.7 | 0.00 | 0.00 | 0.00 | 73 | 1011.1 |
| 20260510070804 | 59 | 315 | 1.7 | 1.7 | 0.00 | 0.00 | 0.00 | 73 | 1011.1 |
| 20260510070304 | 59 | 270 | 1.7 | 1.7 | 0.00 | 0.00 | 0.00 | 72 | 1011.1 |
| 20260510065804 | 59 | 293 | 1.7 | 1.7 | 0.00 | 0.00 | 0.00 | 72 | 1011.1 |
| 20260510065306 | 60 | 315 | 1.7 | 1.7 | 0.00 | 0.00 | 0.00 | 71 | 1011.1 |
| 20260510064804 | 60 | 293 | 1.7 | 1.7 | 0.00 | 0.00 | 0.00 | 71 | 1011.1 |
| 20260510064304 | 60 | 293 | 1.7 | 1.7 | 0.00 | 0.00 | 0.00 | 70 | 1011.1 |
| 20260510063804 | 60 | 270 | 0.9 | 1.7 | 0.00 | 0.00 | 0.00 | 70 | 1011.1 |
| 20260510063303 | 60 | 338 | 1.7 | 1.7 | 0.00 | 0.00 | 0.00 | 70 | 1011.1 |
| 20260510062804 | 60 | 270 | 0.0 | 1.7 | 0.00 | 0.00 | 0.00 | 71 | 1011.1 |
| 20260510062307 | 60 | 45 | 2.6 | 3.5 | 0.00 | 0.00 | 0.00 | 71 | 1011.5 |
| 20260510061804 | 60 | 225 | 1.7 | 3.5 | 0.00 | 0.00 | 0.00 | 73 | 1011.5 |
| 20260510061304 | 60 | 158 | 3.5 | 3.5 | 0.00 | 0.00 | 0.00 | 75 | 1011.5 |
| 20260510060804 | 60 | 338 | 1.7 | 1.7 | 0.00 | 0.00 | 0.00 | 76 | 1011.5 |
| 20260510060304 | 60 | 293 | 1.7 | 1.7 | 0.00 | 0.00 | 0.00 | 76 | 1011.5 |
| 20260510055804 | 60 | 270 | 1.7 | 1.7 | 0.00 | 0.00 | 0.00 | 76 | 1011.1 |
| 20260510055306 | 60 | 248 | 1.7 | 1.7 | 0.00 | 0.00 | 0.00 | 76 | 1011.1 |
| 20260510054804 | 60 | 225 | 0.9 | 0.9 | 0.00 | 0.00 | 0.00 | 76 | 1011.1 |
| 20260510054304 | 60 | 293 | 3.5 | 3.5 | 0.00 | 0.00 | 0.00 | 76 | 1011.1 |
| 20260510053804 | 60 | 293 | 1.7 | 3.5 | 0.00 | 0.00 | 0.00 | 76 | 1011.1 |
| 20260510053304 | 60 | 203 | 0.0 | 0.0 | 0.00 | 0.00 | 0.00 | 75 | 1011.1 |
| 20260510052804 | 60 | 180 | 0.0 | 0.0 | 0.00 | 0.00 | 0.00 | 75 | 1011.1 |
| 20260510052306 | 60 | 270 | 0.0 | 1.7 | 0.00 | 0.00 | 0.00 | 74 | 1011.1 |
| 20260510051804 | 60 | 293 | 0.9 | 0.9 | 0.00 | 0.00 | 0.00 | 74 | 1011.1 |
| 20260510051304 | 60 | 225 | 0.0 | 0.0 | 0.00 | 0.00 | 0.00 | 74 | 1011.1 |
| 20260510050804 | 60 | 315 | 2.6 | 3.5 | 0.00 | 0.00 | 0.00 | 74 | 1011.1 |
| 20260510050303 | 60 | 270 | 0.0 | 0.0 | 0.00 | 0.00 | 0.00 | 74 | 1011.1 |
| 20260510045804 | 60 | 225 | 1.7 | 1.7 | 0.00 | 0.00 | 0.00 | 74 | 1010.8 |
| 20260510045306 | 60 | 270 | 1.7 | 1.7 | 0.00 | 0.00 | 0.00 | 74 | 1010.8 |
| 20260510044804 | 60 | 225 | 1.7 | 1.7 | 0.00 | 0.00 | 0.00 | 74 | 1010.8 |
| 20260510044304 | 60 | 203 | 0.0 | 0.9 | 0.00 | 0.00 | 0.00 | 74 | 1010.8 |
| 20260510043804 | 60 | 293 | 0.9 | 1.7 | 0.00 | 0.00 | 0.00 | 74 | 1010.8 |
| 20260510043303 | 60 | 23 | 0.0 | 0.0 | 0.00 | 0.00 | 0.00 | 73 | 1010.8 |
| 20260510042804 | 60 | 203 | 0.0 | 1.7 | 0.00 | 0.00 | 0.00 | 72 | 1010.8 |
| 20260510042306 | 60 | 135 | 0.0 | 0.9 | 0.00 | 0.00 | 0.00 | 72 | 1010.4 |
| 20260510041804 | 60 | 293 | 1.7 | 1.7 | 0.00 | 0.00 | 0.00 | 71 | 1010.4 |
| 20260510041303 | 60 | 113 | 0.9 | 1.7 | 0.00 | 0.00 | 0.00 | 71 | 1010.4 |
| 20260510040804 | 60 | 203 | 1.7 | 1.7 | 0.00 | 0.00 | 0.00 | 71 | 1010.4 |
| 20260510040303 | 60 | 293 | 0.9 | 1.7 | 0.00 | 0.00 | 0.00 | 71 | 1010.4 |
| 20260510035803 | 60 | 68 | 1.7 | 1.7 | 0.00 | 0.34 | 0.34 | 70 | 1010.4 |
| 20260510035306 | 60 | 0 | 1.7 | 1.7 | 0.00 | 0.34 | 0.34 | 71 | 1010.4 |
| 20260510034804 | 60 | 135 | 0.0 | 0.0 | 0.00 | 0.34 | 0.34 | 71 | 1010.4 |
| 20260510034304 | 60 | 203 | 0.0 | 0.0 | 0.00 | 0.34 | 0.34 | 70 | 1010.4 |
| 20260510033803 | 61 | 270 | 1.7 | 1.7 | 0.00 | 0.34 | 0.34 | 70 | 1010.4 |
| 20260510033304 | 61 | 225 | 0.0 | 0.0 | 0.00 | 0.34 | 0.34 | 70 | 1010.1 |
| 20260510032804 | 61 | 90 | 1.7 | 1.7 | 0.00 | 0.34 | 0.34 | 70 | 1010.1 |
| 20260510032306 | 61 | 90 | 0.0 | 0.0 | 0.00 | 0.34 | 0.34 | 70 | 1010.1 |
| 20260510031804 | 61 | 68 | 0.0 | 0.0 | 0.00 | 0.34 | 0.34 | 69 | 1010.1 |
| 20260510031304 | 61 | 90 | 0.0 | 0.0 | 0.00 | 0.34 | 0.34 | 69 | 1010.1 |
| 20260510030804 | 62 | 23 | 1.7 | 1.7 | 0.00 | 0.34 | 0.34 | 68 | 1010.1 |
| 20260510030303 | 62 | 158 | 0.0 | 0.0 | 0.00 | 0.34 | 0.34 | 68 | 1010.1 |
| 20260510025804 | 62 | 225 | 0.9 | 0.9 | 0.00 | 0.34 | 0.34 | 67 | 1010.1 |
| 20260510025306 | 62 | 158 | 0.0 | 0.0 | 0.00 | 0.34 | 0.34 | 67 | 1010.1 |
| 20260510024804 | 62 | 203 | 0.0 | 0.0 | 0.00 | 0.34 | 0.34 | 68 | 1010.1 |
| 20260510024303 | 62 | 225 | 0.0 | 0.0 | 0.00 | 0.34 | 0.34 | 67 | 1010.1 |
| 20260510023804 | 62 | 68 | 1.7 | 1.7 | 0.00 | 0.34 | 0.34 | 66 | 1010.1 |
| 20260510023304 | 62 | 135 | 1.7 | 1.7 | 0.00 | 0.34 | 0.34 | 67 | 1009.8 |
| 20260510022804 | 62 | 23 | 0.9 | 1.7 | 0.00 | 0.34 | 0.34 | 66 | 1009.8 |
| 20260510022306 | 62 | 293 | 2.6 | 2.6 | 0.00 | 0.34 | 0.34 | 68 | 1009.8 |
| 20260510021804 | 62 | 135 | 0.0 | 0.0 | 0.00 | 0.34 | 0.34 | 67 | 1009.8 |
| 20260510021304 | 62 | 135 | 0.0 | 0.0 | 0.00 | 0.34 | 0.34 | 67 | 1009.8 |
| 20260510020804 | 62 | 135 | 0.9 | 1.7 | 0.00 | 0.34 | 0.34 | 67 | 1009.8 |
| 20260510020304 | 62 | 158 | 0.0 | 0.9 | 0.00 | 0.34 | 0.34 | 65 | 1009.8 |
| 20260510015804 | 63 | 203 | 0.9 | 1.7 | 0.00 | 0.34 | 0.34 | 65 | 1009.4 |
| 20260510015306 | 63 | 113 | 0.9 | 2.6 | 0.00 | 0.34 | 0.34 | 64 | 1009.4 |
| 20260510014804 | 63 | 113 | 0.0 | 0.0 | 0.00 | 0.34 | 0.34 | 65 | 1009.1 |
| 20260510014304 | 63 | 158 | 0.0 | 1.7 | 0.00 | 0.34 | 0.34 | 64 | 1009.1 |
| 20260510013804 | 63 | 293 | 1.7 | 1.7 | 0.00 | 0.34 | 0.34 | 63 | 1009.1 |
| 20260510013304 | 64 | 90 | 0.0 | 0.0 | 0.00 | 0.34 | 0.34 | 63 | 1009.1 |
| 20260510012804 | 64 | 270 | 1.7 | 1.7 | 0.00 | 0.34 | 0.34 | 63 | 1009.1 |
| 20260510012306 | 64 | 23 | 0.0 | 0.0 | 0.00 | 0.34 | 0.34 | 62 | 1008.8 |
| 20260510011804 | 64 | 203 | 1.7 | 1.7 | 0.00 | 0.34 | 0.34 | 61 | 1008.8 |
| 20260510011304 | 64 | 135 | 0.0 | 0.0 | 0.00 | 0.34 | 0.34 | 62 | 1009.1 |
| 20260510010804 | 64 | 225 | 1.7 | 1.7 | 0.00 | 0.34 | 0.34 | 61 | 1009.1 |
| 20260510010304 | 64 | 158 | 0.0 | 0.0 | 0.00 | 0.34 | 0.34 | 61 | 1009.1 |
| 20260510005804 | 65 | 203 | 0.0 | 0.0 | 0.00 | 0.34 | 0.34 | 60 | 1008.8 |
| 20260510005306 | 65 | 203 | 0.0 | 0.9 | 0.00 | 0.34 | 0.34 | 60 | 1008.8 |
| 20260510004803 | 66 | 293 | 0.0 | 0.9 | 0.00 | 0.34 | 0.34 | 59 | 1008.8 |
| 20260510004304 | 66 | 270 | 0.0 | 0.0 | 0.00 | 0.34 | 0.34 | 58 | 1008.8 |
| 20260510003804 | 66 | 180 | 1.7 | 1.7 | 0.00 | 0.34 | 0.34 | 57 | 1008.8 |
| 20260510003304 | 66 | 135 | 2.6 | 2.6 | 0.00 | 0.34 | 0.34 | 57 | 1008.4 |
| 20260510002809 | 66 | 0 | 1.7 | 1.7 | 0.00 | 0.34 | 0.34 | 58 | 1008.4 |
| 20260510002306 | 67 | 113 | 1.7 | 1.7 | 0.00 | 0.34 | 0.34 | 57 | 1008.4 |
| 20260510001804 | 67 | 158 | 1.7 | 1.7 | 0.00 | 0.34 | 0.34 | 55 | 1008.4 |
| 20260510001303 | 67 | 180 | 1.7 | 1.7 | 0.00 | 0.34 | 0.34 | 56 | 1008.1 |
| 20260510000804 | 67 | 270 | 3.5 | 3.5 | 0.00 | 0.34 | 0.34 | 55 | 1008.1 |
| 20260510000304 | 68 | 0 | 0.0 | 0.0 | 0.00 | 0.34 | 0.34 | 54 | 1008.1 |
| 20260509235804 | 68 | 270 | 1.7 | 1.7 | 0.00 | 0.34 | 0.34 | 53 | 1008.1 |
| 20260509235306 | 68 | 180 | 1.7 | 1.7 | 0.00 | 0.34 | 0.34 | 53 | 1008.1 |
| 20260509234804 | 68 | 23 | 1.7 | 3.5 | 0.00 | 0.34 | 0.34 | 52 | 1008.1 |
| 20260509234304 | 68 | 248 | 1.7 | 4.3 | 0.00 | 0.34 | 0.34 | 52 | 1008.1 |
| 20260509233804 | 69 | 270 | 1.7 | 1.7 | 0.00 | 0.34 | 0.34 | 52 | 1008.1 |
| 20260509233304 | 69 | 270 | 3.5 | 4.3 | 0.00 | 0.34 | 0.34 | 52 | 1008.1 |
| 20260509232306 | 69 | 270 | 1.7 | 3.5 | 0.00 | 0.34 | 0.34 | 53 | 1008.1 |
| 20260509231804 | 69 | 270 | 4.3 | 4.3 | 0.00 | 0.34 | 0.34 | 52 | 1008.1 |
| 20260509231304 | 70 | 248 | 2.6 | 5.2 | 0.00 | 0.34 | 0.34 | 52 | 1008.1 |
| 20260509230804 | 69 | 225 | 3.5 | 4.3 | 0.00 | 0.34 | 0.34 | 52 | 1008.1 |
| 20260509230303 | 69 | 248 | 3.5 | 3.5 | 0.00 | 0.34 | 0.34 | 53 | 1008.1 |
| 20260509225804 | 70 | 135 | 3.5 | 4.3 | 0.00 | 0.34 | 0.34 | 52 | 1007.7 |
| 20260509225306 | 71 | 45 | 1.7 | 1.7 | 0.00 | 0.34 | 0.34 | 50 | 1007.7 |
| 20260509224803 | 71 | 248 | 1.7 | 4.3 | 0.00 | 0.34 | 0.34 | 51 | 1008.1 |
| 20260509224304 | 71 | 23 | 3.5 | 3.5 | 0.00 | 0.34 | 0.34 | 50 | 1008.1 |
| 20260509223804 | 71 | 45 | 1.7 | 1.7 | 0.00 | 0.34 | 0.34 | 51 | 1008.1 |
| 20260509223304 | 71 | 90 | 3.5 | 3.5 | 0.00 | 0.34 | 0.34 | 52 | 1007.7 |
| 20260509222804 | 71 | 293 | 2.6 | 4.3 | 0.00 | 0.34 | 0.34 | 50 | 1007.7 |
| 20260509222307 | 71 | 203 | 5.2 | 6.1 | 0.00 | 0.34 | 0.34 | 50 | 1007.7 |
| 20260509221804 | 71 | 225 | 3.5 | 3.5 | 0.00 | 0.34 | 0.34 | 52 | 1007.7 |
| 20260509221303 | 70 | 90 | 2.6 | 2.6 | 0.00 | 0.34 | 0.34 | 54 | 1008.1 |
| 20260509220804 | 71 | 180 | 1.7 | 1.7 | 0.00 | 0.34 | 0.34 | 52 | 1008.1 |
| 20260509220304 | 71 | 270 | 5.2 | 5.2 | 0.00 | 0.34 | 0.34 | 53 | 1008.1 |
| 20260509215804 | 71 | 0 | 2.6 | 4.3 | 0.00 | 0.34 | 0.34 | 54 | 1008.1 |
| 20260509215306 | 72 | 23 | 3.5 | 3.5 | 0.00 | 0.34 | 0.34 | 52 | 1008.1 |
| 20260509214803 | 71 | 203 | 1.7 | 1.7 | 0.00 | 0.34 | 0.34 | 51 | 1008.1 |
| 20260509214303 | 71 | 315 | 4.3 | 4.3 | 0.00 | 0.34 | 0.34 | 51 | 1008.1 |
| 20260509213804 | 71 | 23 | 2.6 | 6.1 | 0.00 | 0.34 | 0.34 | 50 | 1008.1 |
| 20260509213304 | 72 | 203 | 1.7 | 3.5 | 0.00 | 0.34 | 0.34 | 51 | 1008.1 |
| 20260509212804 | 73 | 315 | 4.3 | 5.2 | 0.00 | 0.34 | 0.34 | 48 | 1008.1 |
| 20260509212306 | 72 | 203 | 2.6 | 2.6 | 0.00 | 0.34 | 0.34 | 50 | 1008.1 |
| 20260509211804 | 72 | 203 | 1.7 | 6.1 | 0.00 | 0.34 | 0.34 | 50 | 1008.1 |
| 20260509211304 | 71 | 158 | 1.7 | 2.6 | 0.00 | 0.34 | 0.34 | 52 | 1008.1 |
| 20260509210804 | 72 | 203 | 1.7 | 1.7 | 0.00 | 0.34 | 0.34 | 51 | 1008.1 |
| 20260509210304 | 72 | 0 | 1.7 | 2.6 | 0.00 | 0.34 | 0.34 | 52 | 1008.1 |
| 20260509205804 | 72 | 270 | 3.5 | 4.3 | 0.00 | 0.34 | 0.34 | 52 | 1008.1 |
| 20260509205306 | 71 | 90 | 1.7 | 1.7 | 0.00 | 0.34 | 0.34 | 56 | 1008.1 |
| 20260509204804 | 71 | 113 | 2.6 | 3.5 | 0.00 | 0.34 | 0.34 | 53 | 1008.4 |
| 20260509204304 | 71 | 113 | 1.7 | 1.7 | 0.00 | 0.34 | 0.34 | 53 | 1008.4 |
| 20260509203804 | 71 | 0 | 1.7 | 2.6 | 0.00 | 0.34 | 0.34 | 52 | 1008.4 |
| 20260509203304 | 72 | 270 | 4.3 | 4.3 | 0.00 | 0.34 | 0.34 | 52 | 1008.4 |
| 20260509202804 | 71 | 113 | 3.5 | 4.3 | 0.00 | 0.34 | 0.34 | 53 | 1008.4 |
| 20260509202306 | 71 | 158 | 1.7 | 3.5 | 0.00 | 0.34 | 0.34 | 51 | 1008.4 |
| 20260509201803 | 72 | 270 | 4.3 | 5.2 | 0.00 | 0.34 | 0.34 | 53 | 1008.4 |
| 20260509201303 | 71 | 338 | 3.5 | 4.3 | 0.00 | 0.34 | 0.34 | 52 | 1008.8 |
| 20260509200804 | 71 | 203 | 1.7 | 3.5 | 0.00 | 0.34 | 0.34 | 52 | 1008.8 |
| 20260509200304 | 71 | 270 | 1.7 | 4.3 | 0.00 | 0.34 | 0.34 | 53 | 1008.8 |
| 20260509195803 | 70 | 90 | 4.3 | 4.3 | 0.00 | 0.34 | 0.34 | 55 | 1008.8 |
| 20260509195306 | 69 | 158 | 1.7 | 3.5 | 0.00 | 0.34 | 0.34 | 56 | 1008.8 |
| 20260509194804 | 69 | 0 | 2.6 | 2.6 | 0.00 | 0.34 | 0.34 | 57 | 1008.8 |
| 20260509194303 | 67 | 113 | 1.7 | 1.7 | 0.00 | 0.34 | 0.34 | 60 | 1008.8 |
| 20260509193804 | 69 | 68 | 1.7 | 6.1 | 0.00 | 0.34 | 0.34 | 58 | 1008.8 |
| 20260509193303 | 70 | 203 | 5.2 | 6.1 | 0.00 | 0.34 | 0.34 | 57 | 1009.1 |
| 20260509192804 | 69 | 270 | 5.2 | 5.2 | 0.00 | 0.34 | 0.34 | 57 | 1009.1 |
| 20260509192306 | 69 | 45 | 1.7 | 1.7 | 0.00 | 0.34 | 0.34 | 56 | 1009.1 |
| 20260509191804 | 70 | 180 | 4.3 | 4.3 | 0.00 | 0.34 | 0.34 | 57 | 1009.1 |
| 20260509191304 | 69 | 45 | 3.5 | 4.3 | 0.00 | 0.34 | 0.34 | 60 | 1009.1 |
| 20260509190804 | 68 | 90 | 3.5 | 3.5 | 0.00 | 0.34 | 0.34 | 64 | 1009.1 |
| 20260509190304 | 67 | 90 | 1.7 | 1.7 | 0.00 | 0.34 | 0.34 | 64 | 1009.1 |
| 20260509185804 | 67 | 0 | 1.7 | 1.7 | 0.00 | 0.34 | 0.34 | 64 | 1009.1 |
| 20260509185306 | 66 | 180 | 3.5 | 4.3 | 0.00 | 0.34 | 0.34 | 65 | 1009.1 |
| 20260509184804 | 67 | 270 | 3.5 | 6.1 | 0.00 | 0.34 | 0.34 | 64 | 1009.1 |
| 20260509184304 | 68 | 45 | 1.7 | 1.7 | 0.00 | 0.34 | 0.34 | 64 | 1009.1 |
| 20260509183804 | 67 | 315 | 1.7 | 1.7 | 0.00 | 0.34 | 0.34 | 66 | 1009.1 |
| 20260509183304 | 67 | 135 | 3.5 | 5.2 | 0.00 | 0.34 | 0.34 | 63 | 1009.1 |
| 20260509182804 | 66 | 45 | 3.5 | 3.5 | 0.00 | 0.34 | 0.34 | 65 | 1009.1 |
| 20260509182306 | 67 | 315 | 1.7 | 2.6 | 0.00 | 0.34 | 0.34 | 62 | 1009.4 |
| 20260509181804 | 67 | 203 | 2.6 | 2.6 | 0.00 | 0.34 | 0.34 | 61 | 1009.4 |
| 20260509181303 | 68 | 270 | 1.7 | 6.1 | 0.00 | 0.34 | 0.34 | 63 | 1009.4 |
| 20260509180804 | 67 | 203 | 1.7 | 1.7 | 0.00 | 0.34 | 0.34 | 66 | 1009.4 |